METEOR 1-24

Satellite information

Favourite Embed

Satellite Type and Status

PAYLOADIN ORBIT

Key statistics

Satellite METEOR 1-24 at a glance.

Uptime

18093

Days in orbit

Revolutions

≈ 14.1

Per day

Orbit

LEO

Low Earth Orbit

Inclination

81.3

Latest

Satellite identification and parameters

Extended collection of information and parameters for METEOR 1-24.

Object identification

Identified? True

Debris? False

Object name: METEOR 1-24

International designator: 1976-032A

Object number (NORAD): 8799

Object ID (CCSDS): 8799

Country: COMMONWEALTH OF INDEPENDENT STATES (CIS)

Current information (Y/N): Y

RCS size: LARGE

Orbital parameters

Period: 101.993 minutes

Inclination: 81.2524 deg

SMA: 7231.15 km

Apoapsis: 877.851 km

Periapsis: 828.179 km

RAAN: 102.4827 deg

Eccentricy: 0.00343455

Argument of periapsis: 174.6059 deg

Mean anomaly: 185.5491 deg

Mean motion: 14.11860275 rev/day

Mean motion (dot): 0.0000014 rev/day2

B* drag term: 0.000069381951 1/REarth

Two-line elements (TLE)

Creation date: Oct. 20, 2025, 2:10 a.m.

Reference frame: TEME

Reference center: EARTH

Epoch: Oct. 19, 2025, 11:50 p.m. UTC

TLE line 0: 0 METEOR 1-24

TLE line 1: 1 08799U 76032A 25292.99305815 .00000140 00000-0 69382-4 0 9998

TLE line 2: 2 08799 81.2524 102.4827 0034346 174.6059 185.5491 14.11860275550089

Live tracking on map

Real-time ground track for satellite METEOR 1-24.

In-orbit conjunctions

A list of the most updated potential collisions computed for object METEOR 1-24.

Target Orbit TCA Probability of collision Miss distance Type
DMSP 5D-2 F14 DEB SSO 2025-09-30 15:05:11 0.0001419482 515.0 (m) DEBRIS
FENGYUN 1C DEB SSO 2025-05-13 01:27:13 0.000512839 130.0 (m) DEBRIS
FENGYUN 1C DEB SSO 2024-11-19 18:54:40 0.0006761339 180.0 (m) DEBRIS
CZ-6A DEB LEO 2024-11-05 23:13:30 0.0003249832 459.0 (m) DEBRIS
FENGYUN 1C DEB SSO 2024-10-15 22:52:45 0.0001069729 766.0 (m) DEBRIS

Associated space launch

The Meteor-1 series was the first series of Soviet meteorological satellites.

METEOR 1-24 was lifted into orbit during the mission ‘Vostok 8A92M | Meteor-1 24 (37L)’, on board a Vostok 8A92M space rocket.

The launch took place on April 7, 1976, 1:05 p.m. from 41/1.

For more information about the launch, click the button.

Launch to space Vostok 8A92M | Meteor-1 24 (37L)
Vostok 8A92M | Meteor-1 24 (37L)

Agency: N/A

Status: Launch Successful

Launch date: April 7, 1976, 1:05 p.m. UTC

Rocket: Vostok 8A92M

Launch pad: 41/1

Location: Plesetsk Cosmodrome, Russian Federation

...

Latest news about this satellite

There are no fresh news available about this satellite. Check back as we update our databases every day.


Newsletter sign-up

Weekly statistics, charts and insights to help you stay on top of the space industry.